Location: Newark
(41.0400°S, 62.7845°W)
Time: 20:02:50
(UTC+00:00)

AAUSAT CUBESAT 2 - Visible Passes

Search period start: 24 January 2022 00:00
Search period end: 03 February 2022 00:00
Orbit: 571 x 585 km, 97.5° (Epoch: 24 January)

Date Brightness Start Highest point End Pass type
(mag) Time Alt. Az. Time Alt. Az. Time Alt. Az.
24 Jan ? 08:15:47 10° NNE 08:19:51 68° ESE 08:23:59 10° S visible
25 Jan ? 08:20:16 10° NNE 08:24:21 77° ESE 08:28:31 10° S visible
26 Jan ? 08:24:45 10° NNE 08:28:51 87° ESE 08:33:01 10° SSW visible
27 Jan ? 08:29:15 10° N 08:33:20 83° WNW 08:37:30 10° SSW visible
28 Jan ? 07:02:54 10° ESE 07:03:10 10° ESE 07:03:25 10° ESE visible
28 Jan ? 08:33:45 10° N 08:37:51 73° WNW 08:42:00 10° SSW visible
29 Jan ? 07:06:17 10° E 07:07:36 11° ESE 07:08:54 10° SE visible
29 Jan ? 08:38:16 10° N 08:42:20 64° W 08:46:28 10° SSW visible
30 Jan ? 07:10:13 10° E 07:12:02 13° ESE 07:13:50 10° SE visible
31 Jan ? 07:14:15 10° E 07:16:27 14° ESE 07:18:39 10° SSE visible
01 Feb ? 07:18:23 10° ENE 07:20:52 16° ESE 07:23:23 10° SSE visible
02 Feb ? 07:22:34 10° ENE 07:25:18 18° ESE 07:28:03 10° SSE visible
